Location: Dos Palmas
(32.4468°N, 116.8732°W)
Time: 02:15:16
(UTC+00:00)

Cosmos 1544 Rocket - Pass Details

Date: 20 June 2021
Orbit: 604 x 631 km, 82.5° (Epoch: 27 July)

Event Time Altitude Azimuth Distance (km) Brightness Sun altitude
Rises 05:21:22 0° 352° (N) 2,920 8.0 -23.9°
Reaches altitude 10° 05:23:37 10° 352° (N) 2,007 7.0 -24.2°
Enters shadow 05:28:02 81° 277° (W) 635 3.5 -24.8°
